This is the latest recevied weather packets stored in our database for station/object VE8SKI. If no packets are shown the sender has not sent any weather packets the latest 10 day(s).
| Time | Temp. | Humidity | Pressure | Rain* | Wind** | Luminosity | Snow |
|---|---|---|---|---|---|---|---|
| 1777505157 | 9.44° C | 48% | 1013.9 hPa | 0 mm | 1.34 m/s, 212° | - | - |
| 1777504854 | 9.44° C | 48% | 1014 hPa | 0 mm | 2.24 m/s, 235° | - | - |
| 1777504555 | 9.44° C | 49% | 1014.1 hPa | 0 mm | 2.24 m/s, 194° | - | - |
| 1777504255 | 9.44° C | 48% | 1014.2 hPa | 0 mm | 1.79 m/s, 221° | - | - |
| 1777503956 | 9.44° C | 48% | 1014.2 hPa | 0 mm | 1.79 m/s, 311° | - | - |
| 1777503656 | 8.89° C | 48% | 1014.2 hPa | 0 mm | 2.68 m/s, 239° | - | - |
| 1777503357 | 9.44° C | 48% | 1014.2 hPa | 0 mm | 1.79 m/s, 184° | - | - |
| 1777503055 | 9.44° C | 49% | 1014.2 hPa | 0 mm | 2.68 m/s, 191° | - | - |
| 1777502755 | 9.44° C | 48% | 1014.1 hPa | 0 mm | 2.24 m/s, 264° | - | - |
| 1777502456 | 8.89° C | 48% | 1014.1 hPa | 0 mm | 3.13 m/s, 257° | - | - |
| 1777502156 | 8.89° C | 49% | 1014.2 hPa | 0 mm | 1.79 m/s, 225° | - | - |
| 1777501857 | 8.89° C | 48% | 1014.2 hPa | 0 mm | 2.68 m/s, 201° | - | - |
| 1777501557 | 9.44° C | 47% | 1014.3 hPa | 0 mm | 3.58 m/s, 204° | - | - |
| 1777501255 | 9.44° C | 48% | 1014.4 hPa | 0 mm | 2.68 m/s, 152° | - | - |
| 1777500956 | 8.89° C | 48% | 1014.5 hPa | 0 mm | 2.68 m/s, 186° | - | - |
| 1777500656 | 8.89° C | 49% | 1014.5 hPa | 0 mm | 2.24 m/s, 162° | - | - |
| 1777500357 | 8.89° C | 49% | 1014.5 hPa | 0 mm | 2.68 m/s, 146° | - | - |
| 1777500057 | 8.89° C | 49% | 1014.4 hPa | 0 mm | 2.24 m/s, 169° | - | - |
| 1777499758 | 8.89° C | 49% | 1014.4 hPa | 0 mm | 2.68 m/s, 198° | - | - |
| 1777499455 | 8.89° C | 48% | 1014.3 hPa | 0 mm | 2.68 m/s, 200° | - | - |
| 1777499156 | 8.89° C | 49% | 1014.3 hPa | 0 mm | 3.58 m/s, 172° | - | - |
| 1777498856 | 8.33° C | 49% | 1014.3 hPa | 0 mm | 3.13 m/s, 229° | - | - |
| 1777498557 | 8.33° C | 50% | 1014.2 hPa | 0 mm | 2.68 m/s, 142° | - | - |
| 1777498257 | 8.33° C | 49% | 1014.3 hPa | 0 mm | 3.13 m/s, 145° | - | - |
| 1777497958 | 8.89° C | 50% | 1014.2 hPa | 0 mm | 1.79 m/s, 316° | - | - |
* Rain latest hour (hover to see other rain measurements)
** Current wind speed in m/s (hover to see current wind gust speed)